Jennings, LA

9:19 AM CDT on September 26, 2017 (GMT -0500)
Jennings

Weather History for K3R7 - November, 2013

Change the Weather History Date:

Friday, November 29, 2013

  Actual Average (KCWF) Record (KCWF)
Temperature  
Mean Temperature 43 °F -  
Max Temperature 57 °F 66 °F 80 °F (2016)
Min Temperature 29 °F 50 °F 30 °F (2013)
Degree Days  
Heating Degree Days 22    
Moisture  
Dew Point 31 °F    
Average Humidity 68    
Maximum Humidity 96    
Minimum Humidity 30    
Precipitation  
Precipitation 0.00 in - - ()
Sea Level Pressure  
Sea Level Pressure 30.47 in    
Wind  
Wind Speed 2 mph (NE)    
Max Wind Speed 10 mph    
Max Gust Speed -    
Visibility 10 miles    
Events      
Averages and records for this station are not official NWS values.
T = Trace of Precipitation, MM = Missing Value Source: NWS Daily Summary

Daily Weather History Graph

Daily Weather History Graph

Search for Another Location

Airport or City:

Trip Planner

Search our weather history database for the weather conditions in past years. The results will help you decide how hot, cold, wet, or windy it might be!

Date:

Astronomy

Nov. 29, 2013 Rise Set
Actual Time 6:48 AM CST 5:10 PM CST
Civil Twilight 6:22 AM CST 5:36 PM CST
Nautical Twilight 5:52 AM CST 6:05 PM CST
Astronomical Twilight 5:23 AM CST 6:34 PM CST
Moon 3:07 AM CST (11/29) 2:43 PM CST (11/29)
Length of Visible Light 11h 14m
Length of Day
10h 21m
Waning Crescent, 14% of the Moon is Illuminated
Nov 29
Waning Crescent
Dec 2
New
Dec 9
First Quarter
Dec 17
Full
Dec 25
Last Quarter

Hourly Weather History & Observations

Time (CST) Temp. Windchill Dew Point Humidity Pressure Visibility Wind Dir Wind Speed Gust Speed Precip Events Conditions
12:15 AM 31.3 °F - 29.7 °F 94% 30.50 in 10.0 mi Calm Calm - N/A   Clear
12:35 AM 30.9 °F - 29.1 °F 93% 30.50 in 10.0 mi Calm Calm - N/A   Clear
12:55 AM 31.1 °F - 29.3 °F 93% 30.49 in 10.0 mi Calm Calm - N/A   Clear
1:15 AM 30.2 °F - 28.2 °F 92% 30.49 in 10.0 mi Calm Calm - N/A   Clear
1:35 AM 30.7 °F - 29.7 °F 96% 30.49 in 10.0 mi Calm Calm - N/A   Clear
1:55 AM 29.8 °F - 28.6 °F 95% 30.49 in 10.0 mi Calm Calm - N/A   Clear
2:15 AM 30.9 °F - 29.3 °F 94% 30.48 in 10.0 mi Calm Calm - N/A   Clear
2:35 AM 30.7 °F - 28.9 °F 93% 30.48 in 10.0 mi Calm Calm - N/A   Clear
2:55 AM 30.9 °F - 28.8 °F 92% 30.48 in 10.0 mi Calm Calm - N/A   Clear
3:15 AM 30.4 °F - 28.2 °F 92% 30.49 in 10.0 mi Calm Calm - N/A   Clear
3:35 AM 30.7 °F - 29.1 °F 94% 30.49 in 10.0 mi Calm Calm - N/A   Clear
3:55 AM 30.7 °F - 28.8 °F 92% 30.48 in 10.0 mi Calm Calm - N/A   Clear
4:15 AM 30.6 °F - 28.6 °F 92% 30.49 in 10.0 mi Calm Calm - N/A   Clear
4:35 AM 31.1 °F - 29.1 °F 92% 30.49 in 10.0 mi Calm Calm - N/A   Clear
4:55 AM 30.6 °F - 29.3 °F 95% 30.49 in 10.0 mi Calm Calm - N/A   Clear
5:15 AM 31.1 °F - 29.8 °F 95% 30.50 in 10.0 mi Calm Calm - N/A   Clear
5:35 AM 30.9 °F - 28.8 °F 92% 30.51 in 10.0 mi Calm Calm - N/A   Clear
5:55 AM 30.2 °F - 28.4 °F 93% 30.51 in 10.0 mi Calm Calm - N/A   Clear
6:15 AM 30.2 °F - 28.8 °F 94% 30.52 in 10.0 mi Calm Calm - N/A   Clear
6:35 AM 30.0 °F 26.5 °F 28.2 °F 93% 30.52 in 10.0 mi ENE 3.5 mph - N/A   Clear
6:55 AM 29.3 °F 25.6 °F 27.7 °F 94% 30.52 in 10.0 mi ENE 3.5 mph - N/A   Clear
7:15 AM 30.9 °F - 27.3 °F 86% 30.53 in 10.0 mi Calm Calm - N/A   Clear
7:35 AM 31.6 °F - 28.0 °F 87% 30.53 in 10.0 mi Calm Calm - N/A   Clear
7:55 AM 33.1 °F - 29.8 °F 88% 30.53 in 10.0 mi Calm Calm - N/A   Clear
8:15 AM 36.0 °F 33.3 °F 30.2 °F 80% 30.53 in 10.0 mi ENE 3.5 mph - N/A   Clear
8:35 AM 38.3 °F 33.2 °F 31.1 °F 75% 30.53 in 10.0 mi ENE 6.9 mph - N/A   Clear
8:55 AM 40.8 °F 35.0 °F 31.6 °F 70% 30.53 in 10.0 mi ENE 9.2 mph - N/A   Clear
9:15 AM 42.4 °F 37.0 °F 30.9 °F 64% 30.53 in 10.0 mi ENE 9.2 mph - N/A   Clear
9:35 AM 45.0 °F 41.2 °F 31.1 °F 58% 30.53 in 10.0 mi East 6.9 mph - N/A   Clear
9:55 AM 47.1 °F - 31.1 °F 54% 30.53 in 10.0 mi East 9.2 mph - N/A   Clear
10:15 AM 48.0 °F - 29.5 °F 49% 30.53 in 10.0 mi ENE 10.4 mph - N/A   Clear
10:35 AM 49.5 °F - 30.0 °F 47% 30.52 in 10.0 mi ENE 8.1 mph - N/A   Clear
10:55 AM 51.1 °F - 30.4 °F 45% 30.52 in 10.0 mi ESE 8.1 mph - N/A   Clear
11:15 AM 51.4 °F - 28.9 °F 42% 30.51 in 10.0 mi ENE 5.8 mph - N/A   Clear
11:35 AM 52.3 °F - 28.4 °F 40% 30.51 in 10.0 mi ENE 5.8 mph - N/A   Clear
11:55 AM 52.9 °F - 28.6 °F 39% 30.50 in 10.0 mi NE 4.6 mph - N/A   Clear
12:15 PM 54.5 °F - 29.8 °F 39% 30.48 in 10.0 mi NNE 5.8 mph - N/A   Clear
12:35 PM 54.3 °F - 30.9 °F 41% 30.48 in 10.0 mi Calm Calm - N/A   Clear
12:55 PM 55.4 °F - 30.9 °F 39% 30.46 in 10.0 mi North 5.8 mph - N/A   Clear
1:15 PM 55.4 °F - 27.7 °F 35% 30.46 in 10.0 mi NNW 3.5 mph - N/A   Clear
1:35 PM 56.5 °F - 28.0 °F 34% 30.46 in 10.0 mi Calm Calm - N/A   Clear
1:55 PM 56.1 °F - 29.1 °F 36% 30.45 in 10.0 mi NE 5.8 mph - N/A   Clear
2:15 PM 56.5 °F - 24.8 °F 30% 30.44 in 10.0 mi North - - N/A   Clear
2:35 PM 56.7 °F - 29.1 °F 35% 30.44 in 10.0 mi Calm Calm - N/A   Clear
2:55 PM 57.4 °F - 28.9 °F 34% 30.44 in 10.0 mi NW 4.6 mph - N/A   Clear
3:15 PM 57.2 °F - 30.4 °F 36% 30.44 in 10.0 mi NNW 3.5 mph - N/A   Clear
3:35 PM 57.4 °F - 30.9 °F 37% 30.44 in 10.0 mi Calm Calm - N/A   Clear
3:55 PM 57.2 °F - 30.2 °F 36% 30.44 in 10.0 mi NNE 4.6 mph - N/A   Clear
4:15 PM 56.5 °F - 30.0 °F 36% 30.43 in 10.0 mi NE 5.8 mph - N/A   Clear
4:35 PM 55.6 °F - 31.5 °F 40% 30.43 in 10.0 mi NE 3.5 mph - N/A   Clear
4:55 PM 54.3 °F - 32.0 °F 43% 30.42 in 10.0 mi North - - N/A   Clear
5:15 PM 52.9 °F - 33.3 °F 47% 30.42 in 10.0 mi NNE 3.5 mph - N/A   Clear
5:35 PM 51.8 °F - 34.0 °F 51% 30.43 in 10.0 mi Calm Calm - N/A   Clear
5:55 PM 48.0 °F - 33.6 °F 57% 30.43 in 10.0 mi Calm Calm - N/A   Clear
6:15 PM 46.9 °F - 35.1 °F 63% 30.43 in 10.0 mi Calm Calm - N/A   Clear
6:35 PM 45.1 °F - 36.0 °F 70% 30.44 in 10.0 mi Calm Calm - N/A   Clear
6:55 PM 44.6 °F - 35.6 °F 71% 30.44 in 10.0 mi Calm Calm - N/A   Clear
7:15 PM 43.5 °F - 35.8 °F 74% 30.45 in 10.0 mi Calm Calm - N/A   Clear
7:35 PM 43.0 °F - 35.6 °F 75% 30.45 in 10.0 mi Calm Calm - N/A   Clear
7:55 PM 43.5 °F 41.9 °F 35.6 °F 74% 30.45 in 10.0 mi East 3.5 mph - N/A   Clear
8:15 PM 43.7 °F 42.1 °F 34.7 °F 71% 30.45 in 10.0 mi East 3.5 mph - N/A   Clear
8:35 PM 42.4 °F 40.7 °F 34.2 °F 72% 30.45 in 10.0 mi East 3.5 mph - N/A   Clear
8:55 PM 41.9 °F - 34.2 °F 74% 30.44 in 10.0 mi Calm Calm - N/A   Clear
9:15 PM 41.5 °F - 33.4 °F 73% 30.44 in 10.0 mi Calm Calm - N/A   Clear
9:35 PM 41.5 °F - 32.5 °F 70% 30.44 in 10.0 mi Calm Calm - N/A   Clear
9:55 PM 41.5 °F - 32.2 °F 69% 30.44 in 10.0 mi Calm Calm - N/A   Clear
10:15 PM 41.7 °F - 32.0 °F 68% 30.44 in 10.0 mi Calm Calm - N/A   Clear
10:35 PM 36.5 °F - 32.0 °F 84% 30.45 in 10.0 mi Calm Calm - N/A   Clear
10:55 PM 37.8 °F - 32.7 °F 82% 30.44 in 10.0 mi Calm Calm - N/A   Clear
11:15 PM 38.5 °F - 32.9 °F 80% 30.43 in 10.0 mi Calm Calm - N/A   Clear
11:35 PM 37.4 °F 34.9 °F 32.7 °F 83% 30.42 in 10.0 mi ENE 3.5 mph - N/A   Clear
11:55 PM 37.4 °F 33.8 °F 33.1 °F 84% 30.42 in 10.0 mi ENE 4.6 mph - N/A   Clear